User: anonymous   Login
Location: Newark
(25.4800°N, 85.7200°E)
Time: 12:26:36
(UTC+00:00)
Language:

Tiros 1 - Orbit

View from above orbital plane
View from above orbital plane
View from above satellite
View from above satellite

Ground track
Ground track

The orbit data is extracted from the following two-line orbital elements,

1    29U 60002B   19233.14990928 -.00000149  00000-0  89354-5 0  9998
2    29  48.3796 290.5197 0023710  22.2828 337.9109 14.74314087174205
Epoch (UTC): 21 August 2019 03:35:52
Eccentricity: 0.0023710
inclination: 48.3796°
perigee height: 630 km
apogee height: 664 km
right ascension of ascending node: 290.5197°
argument of perigee: 22.2828°
revolutions per day: 14.74314087
mean anomaly at epoch: 337.9109°
orbit number at epoch: 17420

The dashed part of the orbit path shows where the satellite is in the earth's shadow,  

DLR